This is the latest recevied weather packets stored in our database for station/object KC5DAQ-22. If no packets are shown the sender has not sent any weather packets the latest 10 day(s).
| Time | Temp. | Humidity | Pressure | Rain* | Wind** | Luminosity | Snow |
|---|---|---|---|---|---|---|---|
| 1778255684 | 20° C | 91% | 1011.2 hPa | 0 mm | - | 165 W/m² | - |
| 1778255626 | 20° C | 91% | 1011.3 hPa | 0 mm | - | 167 W/m² | - |
| 1778255564 | 20° C | 91% | 1011.2 hPa | 0 mm | - | 169 W/m² | - |
| 1778255505 | 20° C | 91% | 1011.1 hPa | 0 mm | - | 197 W/m² | - |
| 1778255445 | 20° C | 91% | 1011.1 hPa | 0 mm | - | 213 W/m² | - |
| 1778255385 | 20° C | 91% | 1011.1 hPa | 0 mm | - | 222 W/m² | - |
| 1778255325 | 20° C | 91% | 1011.1 hPa | 0 mm | - | 218 W/m² | - |
| 1778255265 | 20° C | 91% | 1011.2 hPa | 0 mm | - | 211 W/m² | - |
| 1778255206 | 20° C | 91% | 1011.2 hPa | 0 mm | - | 188 W/m² | - |
| 1778255144 | 20° C | 91% | 1011.2 hPa | 0 mm | - | 155 W/m² | - |
| 1778255085 | 20° C | 91% | 1011.2 hPa | 0 mm | - | 135 W/m² | - |
| 1778255026 | 20° C | 90% | 1011.2 hPa | 0 mm | - | 111 W/m² | - |
| 1778254965 | 20° C | 90% | 1011.3 hPa | 0 mm | - | 90 W/m² | - |
| 1778254904 | 20° C | 90% | 1011.4 hPa | 0 mm | - | 76 W/m² | - |
| 1778254844 | 20° C | 91% | 1011.6 hPa | 0 mm | - | 65 W/m² | - |
| 1778254785 | 20° C | 90% | 1011.5 hPa | 0 mm | - | 56 W/m² | - |
| 1778254725 | 20° C | 91% | 1011.5 hPa | 0 mm | - | 60 W/m² | - |
| 1778254664 | 20° C | 91% | 1011.4 hPa | 0 mm | - | 63 W/m² | - |
| 1778254606 | 20° C | 90% | 1011.4 hPa | 0 mm | - | 70 W/m² | - |
| 1778254545 | 20° C | 90% | 1011.4 hPa | 0 mm | - | 72 W/m² | - |
| 1778254485 | 20° C | 90% | 1011.4 hPa | 0 mm | - | 77 W/m² | - |
| 1778254424 | 20° C | 90% | 1011.4 hPa | 0 mm | - | 74 W/m² | - |
| 1778254364 | 20° C | 90% | 1011.3 hPa | 0 mm | - | 70 W/m² | - |
| 1778254303 | 20° C | 90% | 1011.3 hPa | 0 mm | - | 67 W/m² | - |
| 1778254244 | 20° C | 90% | 1011.3 hPa | 0 mm | - | 67 W/m² | - |
* Rain latest hour (hover to see other rain measurements)
** Current wind speed in m/s (hover to see current wind gust speed)